Regional Weather Roundup
Issued by NWS

Home | Current Version | Previous Version | Graphics & Text | Print | Product List | Glossary On
Versions: 1 2 3 4 5 6 7 8 9 10 11 12 13 14 15 16 17 18 19 20 21 22 23 24 25 26 27 28 29 30 31 32 33 34 35 36 37 38 39 40 41 42 43 44 45 46 47 48 49 50
000
ASUS45 KBOI 280410
RWRID
WEATHER ROUNDUP FOR IDAHO
NATIONAL WEATHER SERVICE BOISE ID
1000 PM MDT WED AUG 27 2014

NOTE: "FAIR" INDICATES FEW OR NO CLOUDS BELOW 12000 FEET
WITH NO SIGNIFICANT WEATHER AND/OR OBSTRUCTIONS TO VISIBILITY

IDZ012-014-280500-
SOUTHWEST IDAHO


CITY           SKY/WX    TMP DP  RH WIND       PRES   REMARKS
BOISE          CLEAR     75  37  25 SE5       30.05R
CALDWELL       CLEAR     73  45  35 S6        30.04R
MOUNTAIN HOME  CLEAR     75  37  25 CALM      30.07R
$$

IDZ016-017-280500-
SOUTHCENTRAL IDAHO


CITY           SKY/WX    TMP DP  RH WIND       PRES   REMARKS
BURLEY         CLEAR     62  53  72 CALM      30.15R
JEROME         CLEAR     64  49  57 E7        30.15R
TWIN FALLS     CLEAR     66  50  56 S9        30.15R
$$

IDZ019>023-280500-
SOUTHEAST IDAHO


CITY           SKY/WX    TMP DP  RH WIND       PRES   REMARKS
IDAHO FALLS    CLEAR     67  50  54 S9        30.18R
POCATELLO      CLEAR     63  48  58 S8        30.18R
REXBURG        PTCLDY    65  47  52 S8        30.18R
$$

IDZ006-010-011-018-031-032-280500-
CENTRAL IDAHO MOUNTAINS


CITY           SKY/WX    TMP DP  RH WIND       PRES   REMARKS
MCCALL         CLEAR     64  41  42 VRB3      30.18R
HAILEY         PTCLDY    61  46  59 SE10      30.22R
STANLEY          N/A     54  39  57 SW3       30.30R
SALMON         CLEAR     63  48  59 CALM      30.10R
CHALLIS        CLEAR     63  44  50 CALM      30.17R
$$

IDZ002-004-006-007-026-280500-
NORTHERN IDAHO


CITY           SKY/WX    TMP DP  RH WIND       PRES   REMARKS
LEWISTON       CLEAR     80  48  32 S6        29.92R
LOWELL           N/A     66  56  70 NW3       30.00R
COEUR D`ALENE  CLEAR     75  46  35 SE7       29.95R
MULLAN PASS    CLEAR     63  37  38 VRB6      30.21R
$$


USA.gov is the U.S. government's official web portal to all federal, state and local government web resources and services.